Retour au catalogue

STARLINK-3723

ActifCommunicationsVLEO
NORAD 52138·PAYLOAD·🇺🇸 United States

Lancé Mar 19, 2022 depuis Cape Canaveral Space Force Station

Loading…

Prochains Passages (prochaines 24 heures)

TLE

FraisSource: CelesTrak SupGP

Époque: Sep 15, 2026, 01:30 UTC

1 52138C 22029BC  26258.06298611  .00012375  00000+0  37559-3 0  2587
2 52138  53.1590 294.9285 0001266  94.6120 350.8410 15.33536143    16

Suivez STARLINK-3723 en temps réel avec AllMySat

Download on the App Store